Year,Month,Day,Hour,Minute,Value (Times are PST for temperature in C)
2018,06,03,00,00,12.90
2018,06,03,00,01,12.90
2018,06,03,00,02,12.80
2018,06,03,00,03,12.80
2018,06,03,00,04,12.80
2018,06,03,00,05,12.80
2018,06,03,00,06,12.80
2018,06,03,00,07,12.80
2018,06,03,00,08,12.80
2018,06,03,00,09,12.80
2018,06,03,00,10,12.80
2018,06,03,00,11,12.80
2018,06,03,00,12,12.80
2018,06,03,00,13,12.80
2018,06,03,00,14,12.80
2018,06,03,00,15,12.80
2018,06,03,00,16,12.80
2018,06,03,00,17,12.80
2018,06,03,00,18,12.80
2018,06,03,00,19,12.80
2018,06,03,00,20,12.80
2018,06,03,00,21,12.80
2018,06,03,00,22,12.80
2018,06,03,00,23,12.80
2018,06,03,00,24,12.80
2018,06,03,00,25,12.80
2018,06,03,00,26,12.80
2018,06,03,00,27,12.80
2018,06,03,00,28,12.70
2018,06,03,00,29,12.70
2018,06,03,00,30,12.80
2018,06,03,00,31,12.80
2018,06,03,00,32,12.80
2018,06,03,00,33,12.80
2018,06,03,00,34,12.80
2018,06,03,00,35,12.80
2018,06,03,00,36,12.70
2018,06,03,00,37,12.70
2018,06,03,00,38,12.70
2018,06,03,00,39,12.70
2018,06,03,00,40,12.70
2018,06,03,00,41,12.70
2018,06,03,00,42,12.70
2018,06,03,00,43,12.70
2018,06,03,00,44,12.70
2018,06,03,00,45,12.70
2018,06,03,00,46,12.70
2018,06,03,00,47,12.70
2018,06,03,00,48,12.70
2018,06,03,00,49,12.70
2018,06,03,00,50,12.70
2018,06,03,00,51,12.70
2018,06,03,00,52,12.70
2018,06,03,00,53,12.70
2018,06,03,00,54,12.70
2018,06,03,00,55,12.70
2018,06,03,00,56,12.70
2018,06,03,00,57,12.60
2018,06,03,00,58,12.60
2018,06,03,00,59,12.60
2018,06,03,01,00,12.60
2018,06,03,01,01,12.60
2018,06,03,01,02,12.60
2018,06,03,01,03,12.50
2018,06,03,01,04,12.50
2018,06,03,01,05,12.50
2018,06,03,01,06,12.50
2018,06,03,01,07,12.50
2018,06,03,01,08,12.50
2018,06,03,01,09,12.40
2018,06,03,01,10,12.40
2018,06,03,01,11,12.40
2018,06,03,01,12,12.40
2018,06,03,01,13,12.40
2018,06,03,01,14,12.40
2018,06,03,01,15,12.40
2018,06,03,01,16,12.40
2018,06,03,01,17,12.40
2018,06,03,01,18,12.40
2018,06,03,01,19,12.40
2018,06,03,01,20,12.40
2018,06,03,01,21,12.40
2018,06,03,01,22,12.40
2018,06,03,01,23,12.40
2018,06,03,01,24,12.40
2018,06,03,01,25,12.40
2018,06,03,01,26,12.40
2018,06,03,01,27,12.40
2018,06,03,01,28,12.40
2018,06,03,01,29,12.40
2018,06,03,01,30,12.40
2018,06,03,01,31,12.40
2018,06,03,01,32,12.40
2018,06,03,01,33,12.30
2018,06,03,01,34,12.30
2018,06,03,01,35,12.30
2018,06,03,01,36,12.30
2018,06,03,01,37,12.30
2018,06,03,01,38,12.30
2018,06,03,01,39,12.30
2018,06,03,01,40,12.30
2018,06,03,01,41,12.30
2018,06,03,01,42,12.20
2018,06,03,01,43,12.20
2018,06,03,01,44,12.20
2018,06,03,01,45,12.20
2018,06,03,01,46,12.20
2018,06,03,01,47,12.20
2018,06,03,01,48,12.20
2018,06,03,01,49,12.20
2018,06,03,01,50,12.20
2018,06,03,01,51,12.10
2018,06,03,01,52,12.10
2018,06,03,01,53,12.10
2018,06,03,01,54,12.10
2018,06,03,01,55,12.10
2018,06,03,01,56,12.10
2018,06,03,01,57,12.10
2018,06,03,01,58,12.00
2018,06,03,01,59,12.00
2018,06,03,02,00,12.00
2018,06,03,02,01,11.90
2018,06,03,02,02,11.90
2018,06,03,02,03,11.90
2018,06,03,02,04,11.90
2018,06,03,02,05,11.90
2018,06,03,02,06,11.90
2018,06,03,02,07,11.90
2018,06,03,02,08,11.90
2018,06,03,02,09,11.90
2018,06,03,02,10,11.90
2018,06,03,02,11,11.90
2018,06,03,02,12,11.80
2018,06,03,02,13,11.80
2018,06,03,02,14,11.80
2018,06,03,02,15,11.80
2018,06,03,02,16,11.80
2018,06,03,02,17,11.80
2018,06,03,02,18,11.70
2018,06,03,02,19,11.70
2018,06,03,02,20,11.70
2018,06,03,02,21,11.70
2018,06,03,02,22,11.70
2018,06,03,02,23,11.70
2018,06,03,02,24,11.70
2018,06,03,02,25,11.70
2018,06,03,02,26,11.70
2018,06,03,02,27,11.70
2018,06,03,02,28,11.70
2018,06,03,02,29,11.70
2018,06,03,02,30,11.70
2018,06,03,02,31,11.70
2018,06,03,02,32,11.70
2018,06,03,02,33,11.70
2018,06,03,02,34,11.70
2018,06,03,02,35,11.70
2018,06,03,02,36,11.70
2018,06,03,02,37,11.70
2018,06,03,02,38,11.70
2018,06,03,02,39,11.70
2018,06,03,02,40,11.70
2018,06,03,02,41,11.70
2018,06,03,02,42,11.70
2018,06,03,02,43,11.70
2018,06,03,02,44,11.70
2018,06,03,02,45,11.70
2018,06,03,02,46,11.70
2018,06,03,02,47,11.70
2018,06,03,02,48,11.70
2018,06,03,02,49,11.70
2018,06,03,02,50,11.80
2018,06,03,02,51,11.80
2018,06,03,02,52,11.80
2018,06,03,02,53,11.80
2018,06,03,02,54,11.80
2018,06,03,02,55,11.80
2018,06,03,02,56,11.70
2018,06,03,02,57,11.70
2018,06,03,02,58,11.70
2018,06,03,02,59,11.70
2018,06,03,03,00,11.70
2018,06,03,03,01,11.70
2018,06,03,03,02,11.70
2018,06,03,03,03,11.70
2018,06,03,03,04,11.70
2018,06,03,03,05,11.70
2018,06,03,03,06,11.70
2018,06,03,03,07,11.70
2018,06,03,03,08,11.70
2018,06,03,03,09,11.70
2018,06,03,03,10,11.70
2018,06,03,03,11,11.70
2018,06,03,03,12,11.70
2018,06,03,03,13,11.70
2018,06,03,03,14,11.70
2018,06,03,03,15,11.70
2018,06,03,03,16,11.70
2018,06,03,03,17,11.70
2018,06,03,03,18,11.70
2018,06,03,03,19,11.70
2018,06,03,03,20,11.70
2018,06,03,03,21,11.70
2018,06,03,03,22,11.70
2018,06,03,03,23,11.70
2018,06,03,03,24,11.70
2018,06,03,03,25,11.70
2018,06,03,03,26,11.70
2018,06,03,03,27,11.70
2018,06,03,03,28,11.70
2018,06,03,03,29,11.70
2018,06,03,03,30,11.60
2018,06,03,03,31,11.60
2018,06,03,03,32,11.60
2018,06,03,03,33,11.50
2018,06,03,03,34,11.50
2018,06,03,03,35,11.50
2018,06,03,03,36,11.40
2018,06,03,03,37,11.40
2018,06,03,03,38,11.40
2018,06,03,03,39,11.40
2018,06,03,03,40,11.40
2018,06,03,03,41,11.40
2018,06,03,03,42,11.30
2018,06,03,03,43,11.30
2018,06,03,03,44,11.30
2018,06,03,03,45,11.30
2018,06,03,03,46,11.30
2018,06,03,03,47,11.30
2018,06,03,03,48,11.30
2018,06,03,03,49,11.30
2018,06,03,03,50,11.30
2018,06,03,03,51,11.30
2018,06,03,03,52,11.30
2018,06,03,03,53,11.30
2018,06,03,03,54,11.30
2018,06,03,03,55,11.30
2018,06,03,03,56,11.30
2018,06,03,03,57,11.30
2018,06,03,03,58,11.30
2018,06,03,03,59,11.30
2018,06,03,04,00,11.30
2018,06,03,04,01,11.30
2018,06,03,04,02,11.30
2018,06,03,04,03,11.30
2018,06,03,04,04,11.30
2018,06,03,04,05,11.30
2018,06,03,04,06,11.30
2018,06,03,04,07,11.30
2018,06,03,04,08,11.30
2018,06,03,04,09,11.30
2018,06,03,04,10,11.30
2018,06,03,04,11,11.30
2018,06,03,04,12,11.30
2018,06,03,04,13,11.30
2018,06,03,04,14,11.30
2018,06,03,04,15,11.30
2018,06,03,04,16,11.30
2018,06,03,04,17,11.30
2018,06,03,04,18,11.30
2018,06,03,04,19,11.30
2018,06,03,04,20,11.30
2018,06,03,04,21,11.30
2018,06,03,04,22,11.30
2018,06,03,04,23,11.30
2018,06,03,04,24,11.30
2018,06,03,04,25,11.30
2018,06,03,04,26,11.30
2018,06,03,04,27,11.30
2018,06,03,04,28,11.30
2018,06,03,04,29,11.30
2018,06,03,04,30,11.30
2018,06,03,04,31,11.30
2018,06,03,04,32,11.30
2018,06,03,04,33,11.30
2018,06,03,04,34,11.30
2018,06,03,04,35,11.30
2018,06,03,04,36,11.30
2018,06,03,04,37,11.30
2018,06,03,04,38,11.30
2018,06,03,04,39,11.30
2018,06,03,04,40,11.30
2018,06,03,04,41,11.30
2018,06,03,04,42,11.30
2018,06,03,04,43,11.30
2018,06,03,04,44,11.20
2018,06,03,04,45,11.20
2018,06,03,04,46,11.20
2018,06,03,04,47,11.20
2018,06,03,04,48,11.20
2018,06,03,04,49,11.10
2018,06,03,04,50,11.10
2018,06,03,04,51,11.10
2018,06,03,04,52,11.00
2018,06,03,04,53,11.00
2018,06,03,04,54,11.00
2018,06,03,04,55,11.00
2018,06,03,04,56,10.90
2018,06,03,04,57,10.90
2018,06,03,04,58,10.90
2018,06,03,04,59,10.90
2018,06,03,05,00,10.90
2018,06,03,05,01,10.90
2018,06,03,05,02,10.90
2018,06,03,05,03,10.90
2018,06,03,05,04,10.90
2018,06,03,05,05,10.90
2018,06,03,05,06,10.90
2018,06,03,05,07,10.90
2018,06,03,05,08,10.90
2018,06,03,05,09,10.90
2018,06,03,05,10,10.90
2018,06,03,05,11,10.80
2018,06,03,05,12,10.80
2018,06,03,05,13,10.80
2018,06,03,05,14,10.80
2018,06,03,05,15,10.80
2018,06,03,05,16,10.80
2018,06,03,05,17,10.80
2018,06,03,05,18,10.80
2018,06,03,05,19,10.80
2018,06,03,05,20,10.80
2018,06,03,05,21,10.80
2018,06,03,05,22,10.80
2018,06,03,05,23,10.80
2018,06,03,05,24,10.80
2018,06,03,05,25,10.80
2018,06,03,05,26,10.90
2018,06,03,05,27,10.80
2018,06,03,05,28,10.80
2018,06,03,05,29,10.80
2018,06,03,05,30,10.80
2018,06,03,05,31,10.80
2018,06,03,05,32,10.80
2018,06,03,05,33,10.80
2018,06,03,05,34,10.80
2018,06,03,05,35,10.80
2018,06,03,05,36,10.90
2018,06,03,05,37,10.90
2018,06,03,05,38,10.90
2018,06,03,05,39,10.90
2018,06,03,05,40,10.90
2018,06,03,05,41,10.90
2018,06,03,05,42,10.90
2018,06,03,05,43,10.90
2018,06,03,05,44,10.90
2018,06,03,05,45,10.90
2018,06,03,05,46,10.90
2018,06,03,05,47,11.00
2018,06,03,05,48,11.00
2018,06,03,05,49,11.00
2018,06,03,05,50,11.00
2018,06,03,05,51,11.00
2018,06,03,05,52,11.00
2018,06,03,05,53,11.00
2018,06,03,05,54,11.00
2018,06,03,05,55,11.00
2018,06,03,05,56,11.00
2018,06,03,05,57,11.10
2018,06,03,05,58,11.10
2018,06,03,05,59,11.10
2018,06,03,06,00,11.10
2018,06,03,06,01,11.10
2018,06,03,06,02,11.10
2018,06,03,06,03,11.10
2018,06,03,06,04,11.10
2018,06,03,06,05,11.20
2018,06,03,06,06,11.20
2018,06,03,06,07,11.20
2018,06,03,06,08,11.20
2018,06,03,06,09,11.20
2018,06,03,06,10,11.20
2018,06,03,06,11,11.20
2018,06,03,06,12,11.20
2018,06,03,06,13,11.20
2018,06,03,06,14,11.20
2018,06,03,06,15,11.20
2018,06,03,06,16,11.20
2018,06,03,06,17,11.20
2018,06,03,06,18,11.30
2018,06,03,06,19,11.30
2018,06,03,06,20,11.30
2018,06,03,06,21,11.30
2018,06,03,06,22,11.30
2018,06,03,06,23,11.30
2018,06,03,06,24,11.30
2018,06,03,06,25,11.30
2018,06,03,06,26,11.30
2018,06,03,06,27,11.30
2018,06,03,06,28,11.40
2018,06,03,06,29,11.40
2018,06,03,06,30,11.40
2018,06,03,06,31,11.40
2018,06,03,06,32,11.40
2018,06,03,06,33,11.40
2018,06,03,06,34,11.40
2018,06,03,06,35,11.40
2018,06,03,06,36,11.40
2018,06,03,06,37,11.40
2018,06,03,06,38,11.40
2018,06,03,06,39,11.40
2018,06,03,06,40,11.40
2018,06,03,06,41,11.40
2018,06,03,06,42,11.40
2018,06,03,06,43,11.40
2018,06,03,06,44,11.40
2018,06,03,06,45,11.40
2018,06,03,06,46,11.40
2018,06,03,06,47,11.40
2018,06,03,06,48,11.40
2018,06,03,06,49,11.40
2018,06,03,06,50,11.40
2018,06,03,06,51,11.40
2018,06,03,06,52,11.40
2018,06,03,06,53,11.40
2018,06,03,06,54,11.40
2018,06,03,06,55,11.40
2018,06,03,06,56,11.40
2018,06,03,06,57,11.40
2018,06,03,06,58,11.40
2018,06,03,06,59,11.40
2018,06,03,07,00,11.40
2018,06,03,07,01,11.40
2018,06,03,07,02,11.50
2018,06,03,07,03,11.50
2018,06,03,07,04,11.50
2018,06,03,07,05,11.50
2018,06,03,07,06,11.50
2018,06,03,07,07,11.50
2018,06,03,07,08,11.60
2018,06,03,07,09,11.60
2018,06,03,07,10,11.60
2018,06,03,07,11,11.60
2018,06,03,07,12,11.60
2018,06,03,07,13,11.60
2018,06,03,07,14,11.60
2018,06,03,07,15,11.70
2018,06,03,07,16,11.70
2018,06,03,07,17,11.70
2018,06,03,07,18,11.70
2018,06,03,07,19,11.70
2018,06,03,07,20,11.70
2018,06,03,07,21,11.70
2018,06,03,07,22,11.70
2018,06,03,07,23,11.70
2018,06,03,07,24,11.70
2018,06,03,07,25,11.80
2018,06,03,07,26,11.80
2018,06,03,07,27,11.80
2018,06,03,07,28,11.80
2018,06,03,07,29,11.80
2018,06,03,07,30,11.80
2018,06,03,07,31,11.80
2018,06,03,07,32,11.80
2018,06,03,07,33,11.70
2018,06,03,07,34,11.70
2018,06,03,07,35,11.70
2018,06,03,07,36,11.70
2018,06,03,07,37,11.80
2018,06,03,07,38,11.80
2018,06,03,07,39,11.80
2018,06,03,07,40,11.80
2018,06,03,07,41,11.80
2018,06,03,07,42,11.90
2018,06,03,07,43,11.90
2018,06,03,07,44,11.90
2018,06,03,07,45,12.00
2018,06,03,07,46,12.00
2018,06,03,07,47,12.10
2018,06,03,07,48,12.10
2018,06,03,07,49,12.20
2018,06,03,07,50,12.30
2018,06,03,07,51,12.30
2018,06,03,07,52,12.30
2018,06,03,07,53,12.40
2018,06,03,07,54,12.40
2018,06,03,07,55,12.50
2018,06,03,07,56,12.60
2018,06,03,07,57,12.60
2018,06,03,07,58,12.70
2018,06,03,07,59,12.80
2018,06,03,08,00,12.90
2018,06,03,08,01,12.90
2018,06,03,08,02,12.90
2018,06,03,08,03,13.00
2018,06,03,08,04,13.00
2018,06,03,08,05,13.10
2018,06,03,08,06,13.10
2018,06,03,08,07,13.10
2018,06,03,08,08,13.10
2018,06,03,08,09,13.20
2018,06,03,08,10,13.20
2018,06,03,08,11,13.20
2018,06,03,08,12,13.20
2018,06,03,08,13,13.20
2018,06,03,08,14,13.30
2018,06,03,08,15,13.30
2018,06,03,08,16,13.30
2018,06,03,08,17,13.30
2018,06,03,08,18,13.30
2018,06,03,08,19,13.40
2018,06,03,08,20,13.40
2018,06,03,08,21,13.40
2018,06,03,08,22,13.40
2018,06,03,08,23,13.40
2018,06,03,08,24,13.40
2018,06,03,08,25,13.40
2018,06,03,08,26,13.40
2018,06,03,08,27,13.40
2018,06,03,08,28,13.40
2018,06,03,08,29,13.40
2018,06,03,08,30,13.40
2018,06,03,08,31,13.40
2018,06,03,08,32,13.40
2018,06,03,08,33,13.40
2018,06,03,08,34,13.40
2018,06,03,08,35,13.50
2018,06,03,08,36,13.50
2018,06,03,08,37,13.50
2018,06,03,08,38,13.60
2018,06,03,08,39,13.60
2018,06,03,08,40,13.60
2018,06,03,08,41,13.60
2018,06,03,08,42,13.60
2018,06,03,08,43,13.60
2018,06,03,08,44,13.60
2018,06,03,08,45,13.60
2018,06,03,08,46,13.50
2018,06,03,08,47,13.50
2018,06,03,08,48,13.50
2018,06,03,08,49,13.50
2018,06,03,08,50,13.50
2018,06,03,08,51,13.50
2018,06,03,08,52,13.50
2018,06,03,08,53,13.60
2018,06,03,08,54,13.60
2018,06,03,08,55,13.60
2018,06,03,08,56,13.60
2018,06,03,08,57,13.60
2018,06,03,08,58,13.60
2018,06,03,08,59,13.60
2018,06,03,09,00,13.60
2018,06,03,09,01,13.60
2018,06,03,09,02,13.60
2018,06,03,09,03,13.60
2018,06,03,09,04,13.60
2018,06,03,09,05,13.60
2018,06,03,09,06,13.60
2018,06,03,09,07,13.70
2018,06,03,09,08,13.70
2018,06,03,09,09,13.70
2018,06,03,09,10,13.70
2018,06,03,09,11,13.70
2018,06,03,09,12,13.70
2018,06,03,09,13,13.60
2018,06,03,09,14,13.60
2018,06,03,09,15,13.60
2018,06,03,09,16,13.50
2018,06,03,09,17,13.40
2018,06,03,09,18,13.40
2018,06,03,09,19,13.40
2018,06,03,09,20,13.40
2018,06,03,09,21,13.40
2018,06,03,09,22,13.40
2018,06,03,09,23,13.40
2018,06,03,09,24,13.50
2018,06,03,09,25,13.50
2018,06,03,09,26,13.60
2018,06,03,09,27,13.60
2018,06,03,09,28,13.60
2018,06,03,09,29,13.70
2018,06,03,09,30,13.70
2018,06,03,09,31,13.70
2018,06,03,09,32,13.70
2018,06,03,09,33,13.70
2018,06,03,09,34,13.80
2018,06,03,09,35,13.80
2018,06,03,09,36,13.80
2018,06,03,09,37,13.80
2018,06,03,09,38,13.80
2018,06,03,09,39,13.80
2018,06,03,09,40,13.80
2018,06,03,09,41,13.90
2018,06,03,09,42,13.90
2018,06,03,09,43,13.90
2018,06,03,09,44,13.90
2018,06,03,09,45,13.90
2018,06,03,09,46,13.90
2018,06,03,09,47,14.00
2018,06,03,09,48,14.10
2018,06,03,09,49,14.10
2018,06,03,09,50,14.10
2018,06,03,09,51,14.20
2018,06,03,09,52,14.30
2018,06,03,09,53,14.40
2018,06,03,09,54,14.50
2018,06,03,09,55,14.60
2018,06,03,09,56,14.70
2018,06,03,09,57,14.70
2018,06,03,09,58,14.70
2018,06,03,09,59,14.80
2018,06,03,10,00,14.80
2018,06,03,10,01,14.80
2018,06,03,10,02,14.90
2018,06,03,10,03,14.90
2018,06,03,10,04,14.90
2018,06,03,10,05,14.90
2018,06,03,10,06,14.90
2018,06,03,10,07,14.90
2018,06,03,10,08,14.90
2018,06,03,10,09,14.90
2018,06,03,10,10,14.90
2018,06,03,10,11,15.00
2018,06,03,10,12,15.00
2018,06,03,10,13,15.10
2018,06,03,10,14,15.10
2018,06,03,10,15,15.00
2018,06,03,10,16,15.00
2018,06,03,10,17,15.10
2018,06,03,10,18,15.10
2018,06,03,10,19,15.20
2018,06,03,10,20,15.20
2018,06,03,10,21,15.30
2018,06,03,10,22,15.30
2018,06,03,10,23,15.40
2018,06,03,10,24,15.50
2018,06,03,10,25,15.50
2018,06,03,10,26,15.60
2018,06,03,10,27,15.60
2018,06,03,10,28,15.60
2018,06,03,10,29,15.60
2018,06,03,10,30,15.50
2018,06,03,10,31,15.50
2018,06,03,10,32,15.40
2018,06,03,10,33,15.30
2018,06,03,10,34,15.30
2018,06,03,10,35,15.30
2018,06,03,10,36,15.30
2018,06,03,10,37,15.20
2018,06,03,10,38,15.10
2018,06,03,10,39,15.00
2018,06,03,10,40,14.90
2018,06,03,10,41,14.80
2018,06,03,10,42,14.80
2018,06,03,10,43,14.80
2018,06,03,10,44,14.90
2018,06,03,10,45,14.90
2018,06,03,10,46,14.90
2018,06,03,10,47,15.00
2018,06,03,10,48,15.00
2018,06,03,10,49,15.00
2018,06,03,10,50,15.00
2018,06,03,10,51,14.90
2018,06,03,10,52,14.90
2018,06,03,10,53,14.90
2018,06,03,10,54,14.90
2018,06,03,10,55,14.90
2018,06,03,10,56,14.90
2018,06,03,10,57,14.80
2018,06,03,10,58,14.70
2018,06,03,10,59,14.60
2018,06,03,11,00,14.60
2018,06,03,11,01,14.60
2018,06,03,11,02,14.60
2018,06,03,11,03,14.60
2018,06,03,11,04,14.60
2018,06,03,11,05,14.50
2018,06,03,11,06,14.50
2018,06,03,11,07,14.60
2018,06,03,11,08,14.60
2018,06,03,11,09,14.60
2018,06,03,11,10,14.60
2018,06,03,11,11,14.70
2018,06,03,11,12,14.70
2018,06,03,11,13,14.60
2018,06,03,11,14,14.60
2018,06,03,11,15,14.60
2018,06,03,11,16,14.50
2018,06,03,11,17,14.40
2018,06,03,11,18,14.30
2018,06,03,11,19,14.30
2018,06,03,11,20,14.30
2018,06,03,11,21,14.30
2018,06,03,11,22,14.30
2018,06,03,11,23,14.30
2018,06,03,11,24,14.30
2018,06,03,11,25,14.30
2018,06,03,11,26,14.40
2018,06,03,11,27,14.40
2018,06,03,11,28,14.40
2018,06,03,11,29,14.30
2018,06,03,11,30,14.30
2018,06,03,11,31,14.30
2018,06,03,11,32,14.30
2018,06,03,11,33,14.30
2018,06,03,11,34,14.30
2018,06,03,11,35,14.30
2018,06,03,11,36,14.40
2018,06,03,11,37,14.40
2018,06,03,11,38,14.50
2018,06,03,11,39,14.50
2018,06,03,11,40,14.50
2018,06,03,11,41,14.60
2018,06,03,11,42,14.60
2018,06,03,11,43,14.60
2018,06,03,11,44,14.60
2018,06,03,11,45,14.50
2018,06,03,11,46,14.50
2018,06,03,11,47,14.40
2018,06,03,11,48,14.40
2018,06,03,11,49,14.40
2018,06,03,11,50,14.30
2018,06,03,11,51,14.30
2018,06,03,11,52,14.30
2018,06,03,11,53,14.30
2018,06,03,11,54,14.30
2018,06,03,11,55,14.30
2018,06,03,11,56,14.30
2018,06,03,11,57,14.20
2018,06,03,11,58,14.20
2018,06,03,11,59,14.20
2018,06,03,12,00,14.20
2018,06,03,12,01,14.20
2018,06,03,12,02,14.20
2018,06,03,12,03,14.20
2018,06,03,12,04,14.10
2018,06,03,12,05,14.10
2018,06,03,12,06,14.10
2018,06,03,12,07,14.10
2018,06,03,12,08,14.20
2018,06,03,12,09,14.20
2018,06,03,12,10,14.20
2018,06,03,12,11,14.20
2018,06,03,12,12,14.20
2018,06,03,12,13,14.20
2018,06,03,12,14,14.20
2018,06,03,12,15,14.20
2018,06,03,12,16,14.10
2018,06,03,12,17,14.10
2018,06,03,12,18,14.10
2018,06,03,12,19,14.00
2018,06,03,12,20,14.00
2018,06,03,12,21,14.00
2018,06,03,12,22,13.90
2018,06,03,12,23,13.90
2018,06,03,12,24,13.90
2018,06,03,12,25,13.90
2018,06,03,12,26,13.90
2018,06,03,12,27,13.90
2018,06,03,12,28,13.90
2018,06,03,12,29,13.90
2018,06,03,12,30,13.90
2018,06,03,12,31,13.90
2018,06,03,12,32,13.80
2018,06,03,12,33,13.80
2018,06,03,12,34,13.90
2018,06,03,12,35,13.90
2018,06,03,12,36,14.00
2018,06,03,12,37,14.00
2018,06,03,12,38,14.00
2018,06,03,12,39,14.00
2018,06,03,12,40,14.00
2018,06,03,12,41,14.00
2018,06,03,12,42,14.00
2018,06,03,12,43,14.00
2018,06,03,12,44,14.10
2018,06,03,12,45,14.10
2018,06,03,12,46,14.10
2018,06,03,12,47,14.10
2018,06,03,12,48,14.10
2018,06,03,12,49,14.10
2018,06,03,12,50,14.10
2018,06,03,12,51,14.10
2018,06,03,12,52,14.10
2018,06,03,12,53,14.10
2018,06,03,12,54,14.20
2018,06,03,12,55,14.20
2018,06,03,12,56,14.20
2018,06,03,12,57,14.20
2018,06,03,12,58,14.20
2018,06,03,12,59,14.20
2018,06,03,13,00,14.20
2018,06,03,13,01,14.30
2018,06,03,13,02,14.30
2018,06,03,13,03,14.30
2018,06,03,13,04,14.30
2018,06,03,13,05,14.30
2018,06,03,13,06,14.30
2018,06,03,13,07,14.40
2018,06,03,13,08,14.30
2018,06,03,13,09,14.40
2018,06,03,13,10,14.40
2018,06,03,13,11,14.40
2018,06,03,13,12,14.40
2018,06,03,13,13,14.40
2018,06,03,13,14,14.40
2018,06,03,13,15,14.50
2018,06,03,13,16,14.50
2018,06,03,13,17,14.40
2018,06,03,13,18,14.40
2018,06,03,13,19,14.30
2018,06,03,13,20,14.30
2018,06,03,13,21,14.30
2018,06,03,13,22,14.40
2018,06,03,13,23,14.40
2018,06,03,13,24,14.50
2018,06,03,13,25,14.50
2018,06,03,13,26,14.50
2018,06,03,13,27,14.50
2018,06,03,13,28,14.40
2018,06,03,13,29,14.40
2018,06,03,13,30,14.40
2018,06,03,13,31,14.50
2018,06,03,13,32,14.50
2018,06,03,13,33,14.50
2018,06,03,13,34,14.50
2018,06,03,13,35,14.50
2018,06,03,13,36,14.50
2018,06,03,13,37,14.50
2018,06,03,13,38,14.50
2018,06,03,13,39,14.40
2018,06,03,13,40,14.40
2018,06,03,13,41,14.40
2018,06,03,13,42,14.40
2018,06,03,13,43,14.40
2018,06,03,13,44,14.40
2018,06,03,13,45,14.40
2018,06,03,13,46,14.40
2018,06,03,13,47,14.50
2018,06,03,13,48,14.50
2018,06,03,13,49,14.50
2018,06,03,13,50,14.50
2018,06,03,13,51,14.50
2018,06,03,13,52,14.50
2018,06,03,13,53,14.40
2018,06,03,13,54,14.40
2018,06,03,13,55,14.30
2018,06,03,13,56,14.30
2018,06,03,13,57,14.30
2018,06,03,13,58,14.30
2018,06,03,13,59,14.30
2018,06,03,14,00,14.30
2018,06,03,14,01,14.30
2018,06,03,14,02,14.30
2018,06,03,14,03,14.30
2018,06,03,14,04,14.30
2018,06,03,14,05,14.30
2018,06,03,14,06,14.30
2018,06,03,14,07,14.30
2018,06,03,14,08,14.30
2018,06,03,14,09,14.30
2018,06,03,14,10,14.30
2018,06,03,14,11,14.30
2018,06,03,14,12,14.30
2018,06,03,14,13,14.30
2018,06,03,14,14,14.20
2018,06,03,14,15,14.20
2018,06,03,14,16,14.10
2018,06,03,14,17,14.10
2018,06,03,14,18,14.10
2018,06,03,14,19,14.00
2018,06,03,14,20,14.00
2018,06,03,14,21,13.90
2018,06,03,14,22,13.90
2018,06,03,14,23,13.90
2018,06,03,14,24,13.90
2018,06,03,14,25,13.90
2018,06,03,14,26,13.90
2018,06,03,14,27,13.90
2018,06,03,14,28,13.80
2018,06,03,14,29,13.70
2018,06,03,14,30,13.70
2018,06,03,14,31,13.60
2018,06,03,14,32,13.50
2018,06,03,14,33,13.50
2018,06,03,14,34,13.40
2018,06,03,14,35,13.40
2018,06,03,14,36,13.30
2018,06,03,14,37,13.30
2018,06,03,14,38,13.20
2018,06,03,14,39,13.10
2018,06,03,14,40,13.00
2018,06,03,14,41,12.90
2018,06,03,14,42,12.80
2018,06,03,14,43,12.80
2018,06,03,14,44,12.70
2018,06,03,14,45,12.70
2018,06,03,14,46,12.70
2018,06,03,14,47,12.60
2018,06,03,14,48,12.60
2018,06,03,14,49,12.60
2018,06,03,14,50,12.50
2018,06,03,14,51,12.50
2018,06,03,14,52,12.50
2018,06,03,14,53,12.50
2018,06,03,14,54,12.50
2018,06,03,14,55,12.50
2018,06,03,14,56,12.60
2018,06,03,14,57,12.60
2018,06,03,14,58,12.60
2018,06,03,14,59,12.60
2018,06,03,15,00,12.60
2018,06,03,15,01,12.60
2018,06,03,15,02,12.60
2018,06,03,15,03,12.50
2018,06,03,15,04,12.50
2018,06,03,15,05,12.60
2018,06,03,15,06,12.60
2018,06,03,15,07,12.60
2018,06,03,15,08,12.50
2018,06,03,15,09,12.50
2018,06,03,15,10,12.40
2018,06,03,15,11,12.40
2018,06,03,15,12,12.40
2018,06,03,15,13,12.40
2018,06,03,15,14,12.40
2018,06,03,15,15,12.40
2018,06,03,15,16,12.40
2018,06,03,15,17,12.40
2018,06,03,15,18,12.40
2018,06,03,15,19,12.40
2018,06,03,15,20,12.40
2018,06,03,15,21,12.30
2018,06,03,15,22,12.30
2018,06,03,15,23,12.30
2018,06,03,15,24,12.20
2018,06,03,15,25,12.20
2018,06,03,15,26,12.20
2018,06,03,15,27,12.10
2018,06,03,15,28,12.10
2018,06,03,15,29,12.10
2018,06,03,15,30,12.00
2018,06,03,15,31,12.00
2018,06,03,15,32,11.90
2018,06,03,15,33,11.80
2018,06,03,15,34,11.80
2018,06,03,15,35,11.70
2018,06,03,15,36,11.70
2018,06,03,15,37,11.60
2018,06,03,15,38,11.60
2018,06,03,15,39,11.50
2018,06,03,15,40,11.50
2018,06,03,15,41,11.50
2018,06,03,15,42,11.50
2018,06,03,15,43,11.50
2018,06,03,15,44,11.50
2018,06,03,15,45,11.50
2018,06,03,15,46,11.60
2018,06,03,15,47,11.60
2018,06,03,15,48,11.60
2018,06,03,15,49,11.60
2018,06,03,15,50,11.60
2018,06,03,15,51,11.60
2018,06,03,15,52,11.60
2018,06,03,15,53,11.60
2018,06,03,15,54,11.60
2018,06,03,15,55,11.60
2018,06,03,15,56,11.70
2018,06,03,15,57,11.70
2018,06,03,15,58,11.70
2018,06,03,15,59,11.70
2018,06,03,16,00,11.70
2018,06,03,16,01,11.70
2018,06,03,16,02,11.70
2018,06,03,16,03,11.80
2018,06,03,16,04,11.80
2018,06,03,16,05,11.90
2018,06,03,16,06,11.90
2018,06,03,16,07,11.90
2018,06,03,16,08,11.90
2018,06,03,16,09,11.90
2018,06,03,16,10,12.00
2018,06,03,16,11,12.00
2018,06,03,16,12,12.00
2018,06,03,16,13,12.00
2018,06,03,16,14,12.10
2018,06,03,16,15,12.10
2018,06,03,16,16,12.20
2018,06,03,16,17,12.20
2018,06,03,16,18,12.20
2018,06,03,16,19,12.20
2018,06,03,16,20,12.20
2018,06,03,16,21,12.20
2018,06,03,16,22,12.30
2018,06,03,16,23,12.30
2018,06,03,16,24,12.30
2018,06,03,16,25,12.30
2018,06,03,16,26,12.30
2018,06,03,16,27,12.30
2018,06,03,16,28,12.30
2018,06,03,16,29,12.30
2018,06,03,16,30,12.30
2018,06,03,16,31,12.40
2018,06,03,16,32,12.40
2018,06,03,16,33,12.40
2018,06,03,16,34,12.40
2018,06,03,16,35,12.40
2018,06,03,16,36,12.40
2018,06,03,16,37,12.40
2018,06,03,16,38,12.50
2018,06,03,16,39,12.50
2018,06,03,16,40,12.60
2018,06,03,16,41,12.60
2018,06,03,16,42,12.60
2018,06,03,16,43,12.60
2018,06,03,16,44,12.60
2018,06,03,16,45,12.60
2018,06,03,16,46,12.60
2018,06,03,16,47,12.60
2018,06,03,16,48,12.60
2018,06,03,16,49,12.50
2018,06,03,16,50,12.50
2018,06,03,16,51,12.50
2018,06,03,16,52,12.50
2018,06,03,16,53,12.60
2018,06,03,16,54,12.60
2018,06,03,16,55,12.60
2018,06,03,16,56,12.60
2018,06,03,16,57,12.60
2018,06,03,16,58,12.60
2018,06,03,16,59,12.60
2018,06,03,17,00,12.60
2018,06,03,17,01,12.60
2018,06,03,17,02,12.60
2018,06,03,17,03,12.50
2018,06,03,17,04,12.50
2018,06,03,17,05,12.50
2018,06,03,17,06,12.50
2018,06,03,17,07,12.40
2018,06,03,17,08,12.40
2018,06,03,17,09,12.40
2018,06,03,17,10,12.40
2018,06,03,17,11,12.40
2018,06,03,17,12,12.40
2018,06,03,17,13,12.40
2018,06,03,17,14,12.40
2018,06,03,17,15,12.40
2018,06,03,17,16,12.40
2018,06,03,17,17,12.40
2018,06,03,17,18,12.40
2018,06,03,17,19,12.40